Latest Coastal Weather Observations for Troughton Island

IDD60701

Issued at 9:51 am CST Thursday 23 February 2017 (issued every 10 minutes, with the page automatically refreshed every 10 minutes)

About coastal observations | Map of coastal stations | Coastal observations for NT | Marine services | Other Formats
Station Details ID: 001007 Name: TROUGHTON ISLAND Lat: -13.75 Lon: 126.15 Height: 6.0 m
Data from the previous 72 hours. | See also: Recent months at Troughton Island
Date/Time
CST
Temp
°C
Wind Pressure Rain since
9am
mm
Weather Cloud Vis
km
Sea
Height
m
Swell
Dir  Spd
kts
Gust
kts
hPa Trend Height
m
Period
s
Dir
23/09:30am 30.1 SW 10 12 1011.1 - 1.4 - - - - - - -
23/09:00am 29.7 SW 11 14 1011.0 - 1.4 - - - - - - -
23/08:30am 29.3 SW 11 13 1011.0 - 1.4 - - - - - - -
23/08:00am 28.7 SW 10 13 1010.6 - 1.4 - - - - - - -
23/07:30am 28.5 SW 10 13 1010.3 - 1.4 - - - - - - -
23/07:00am 28.3 SW 10 12 1010.0 - 1.4 - - - - - - -
23/06:30am 28.3 SW 11 13 1009.8 - 1.4 - - - - - - -
23/06:00am 28.4 SW 11 13 1009.7 - 1.4 - - - - - - -
23/05:30am 28.4 SW 13 14 1009.7 - 1.4 - - - - - - -
23/05:00am 28.4 SW 11 13 1009.6 - 1.4 - - - - - - -
23/04:30am 28.6 SW 13 16 1009.5 - 1.4 - - - - - - -
23/04:00am 28.6 SW 13 15 1009.5 - 1.4 - - - - - - -
23/03:30am 28.6 SW 13 15 1009.8 - 1.4 - - - - - - -
23/03:00am 28.8 SW 14 17 1010.0 - 1.4 - - - - - - -
23/02:30am 28.8 WSW 14 16 1010.3 - 1.4 - - - - - - -
23/02:00am 29.0 SW 13 16 1010.7 - 1.4 - - - - - - -
23/01:30am 28.8 WSW 12 15 1011.1 - 1.4 - - - - - - -
23/01:00am 28.9 WSW 13 15 1011.5 - 1.4 - - - - - - -
23/12:30am 28.9 WSW 11 15 1011.8 - 1.4 - - - - - - -
23/12:00am 29.0 WSW 11 13 1012.1 - 1.4 - - - - - - -
 
Date/Time
CST
Temp
°C
Wind Pressure Rain since
9am
mm
Weather Cloud Vis
km
Sea
Height
m
Swell
Dir  Spd
kts
Gust
kts
hPa Trend Height
m
Period
s
Dir
22/11:30pm 29.2 WSW 12 14 1012.1 - 1.4 - - - - - - -
22/11:00pm 29.2 WSW 11 14 1012.1 - 1.4 - - - - - - -
22/10:30pm 29.4 W 11 13 1012.0 - 1.4 - - - - - - -
22/10:00pm 29.3 W 12 14 1011.5 - 1.4 - - - - - - -
22/09:30pm 29.4 W 12 14 1011.2 - 1.4 - - - - - - -
22/09:00pm 29.5 W 13 15 1010.8 - 1.4 - - - - - - -
22/08:30pm 29.5 W 13 15 1010.3 - 1.4 - - - - - - -
22/08:00pm 29.5 W 13 16 1009.9 - 1.4 - - - - - - -
22/07:30pm 29.6 W 14 16 1009.9 - 1.4 - - - - - - -
22/07:00pm 30.4 W 14 16 1009.9 - 1.4 - - - - - - -
22/06:30pm 30.8 W 13 15 1009.5 - 1.4 - - - - - - -
22/06:00pm 31.3 W 13 15 1009.4 - 1.4 - - - - - - -
22/05:30pm 31.8 W 12 15 1009.3 - 1.4 - - - - - - -
22/05:00pm 31.7 W 12 14 1009.5 - 1.4 - - - - - - -
22/04:30pm 32.0 W 12 15 1009.8 - 1.4 - - - - - - -
22/04:00pm 32.1 W 12 14 1009.9 - 1.4 - - - - - - -
22/03:30pm 32.1 W 11 13 1010.2 - 1.4 - - - - - - -
22/03:00pm 32.1 WSW 11 13 1010.4 - 1.4 - - - - - - -
22/02:30pm 32.1 WSW 10 12 1010.5 - 0.0 - - - - - - -
22/02:00pm 32.4 W 9 12 1010.9 - 0.0 - - - - - - -
22/01:30pm 31.9 WSW 9 11 1011.1 - 0.0 - - - - - - -
22/01:00pm 31.9 SW 9 11 1011.5 - 0.0 - - - - - - -
22/12:30pm 31.7 SW 8 11 1011.8 - 0.0 - - - - - - -
22/12:00pm 31.6 SW 9 11 1012.2 - 0.0 - - - - - - -
22/11:30am 31.5 SW 8 11 1012.6 - 0.0 - - - - - - -
22/11:00am 31.0 SW 8 9 1012.8 - 0.0 - - - - - - -
22/10:30am 30.9 SW 7 9 1012.8 - 0.0 - - - - - - -
22/10:00am 30.7 SW 6 8 1012.9 - 0.0 - - - - - - -
22/09:30am 30.0 SW 6 7 1012.8 - 0.0 - - - - - - -
22/09:00am 29.8 SW 6 7 1012.8 - 0.0 - - - - - - -
22/08:30am 29.2 SSW 8 9 1012.6 - 0.0 - - - - - - -
22/08:00am 28.6 SSW 9 10 1012.2 - 0.0 - - - - - - -
22/07:30am 28.2 SSW 8 11 1012.0 - 0.0 - - - - - - -
22/07:00am 28.1 SW 9 11 1011.7 - 0.0 - - - - - - -
22/06:30am 28.1 SW 7 9 1011.4 - 0.0 - - - - - - -
22/06:00am 28.0 SW 6 8 1011.3 - 0.0 - - - - - - -
22/05:30am 28.2 SW 6 8 1011.1 - 0.0 - - - - - - -
22/05:00am 28.4 SW 8 11 1010.7 - 0.0 - - - - - - -
22/04:30am 28.5 SW 9 11 1010.5 - 0.0 - - - - - - -
22/04:00am 28.4 SW 9 11 1010.3 - 0.0 - - - - - - -
22/03:30am 28.5 SW 9 11 1010.3 - 0.0 - - - - - - -
22/03:00am 28.5 WSW 9 11 1010.4 - 0.0 - - - - - - -
22/02:30am 28.6 SW 8 10 1010.7 - 0.0 - - - - - - -
22/02:00am 28.6 SW 7 9 1010.8 - 0.0 - - - - - - -
22/01:30am 28.6 WSW 8 9 1011.1 - 0.0 - - - - - - -
22/01:00am 28.4 WSW 6 8 1011.2 - 0.0 - - - - - - -
22/12:30am 28.4 SW 7 7 1011.5 - 0.0 - - - - - - -
22/12:00am 28.4 WSW 5 7 1011.8 - 0.0 - - - - - - -
 
Date/Time
CST
Temp
°C
Wind Pressure Rain since
9am
mm
Weather Cloud Vis
km
Sea
Height
m
Swell
Dir  Spd
kts
Gust
kts
hPa Trend Height
m
Period
s
Dir
21/11:30pm 28.4 W 6 7 1011.9 - 0.0 - - - - - - -
21/11:00pm 28.3 WNW 5 6 1011.8 - 0.0 - - - - - - -
21/10:30pm 28.4 WNW 5 6 1011.7 - 0.0 - - - - - - -
21/10:00pm 28.4 WNW 5 6 1011.3 - 0.0 - - - - - - -
21/09:30pm 28.7 WNW 6 7 1011.0 - 0.0 - - - - - - -
21/09:00pm 28.8 WNW 7 8 1010.6 - 0.0 - - - - - - -
21/08:30pm 28.9 WNW 7 8 1010.3 - 0.0 - - - - - - -
21/08:00pm 29.1 WNW 7 9 1010.0 - 0.0 - - - - - - -
21/07:30pm 29.5 WNW 8 9 1009.9 - 0.0 - - - - - - -
21/07:00pm 30.2 WNW 8 9 1009.5 - 0.0 - - - - - - -
21/06:30pm 30.8 WNW 9 10 1009.2 - 0.0 - - - - - - -
21/06:00pm 30.9 W 10 12 1008.9 - 0.0 - - - - - - -
21/05:30pm 31.6 WNW 10 12 1008.8 - 0.0 - - - - - - -
21/05:00pm 31.0 WNW 9 11 1009.0 - 0.0 - - - - - - -
21/04:30pm 31.2 WNW 8 9 1009.1 - 0.0 - - - - - - -
21/04:00pm 31.7 WNW 7 9 1009.3 - 0.0 - - - - - - -
21/03:30pm 31.3 W 6 7 1009.6 - 0.0 - - - - - - -
21/03:00pm 31.0 W 6 7 1010.0 - 0.0 - - - - - - -
21/02:30pm 31.5 W 6 7 1010.2 - 0.0 - - - - - - -
21/02:00pm 31.1 W 6 8 1010.7 - 0.0 - - - - - - -
21/01:30pm 31.3 W 5 7 1011.3 - 0.0 - - - - - - -
21/01:00pm 31.3 WSW 5 7 1011.8 - 0.0 - - - - - - -
21/12:30pm 31.2 WSW 5 7 1012.1 - 0.0 - - - - - - -
21/12:00pm 30.9 WSW 5 7 1012.2 - 0.0 - - - - - - -
21/11:30am 30.5 W 5 6 1012.5 - 0.0 - - - - - - -
21/11:00am 29.9 W 5 6 1012.8 - 0.0 - - - - - - -
21/10:30am 29.5 WSW 4 5 1013.0 - 0.0 - - - - - - -
21/10:00am 29.5 SW 4 6 1012.9 - 0.0 - - - - - - -
21/09:30am 29.5 SSW 3 5 1012.7 - 0.0 - - - - - - -
21/09:00am 29.0 S 4 5 1012.6 - 0.0 - - - - - - -
21/08:30am 28.7 S 4 5 1012.1 - 0.0 - - - - - - -
21/08:00am 28.0 S 5 6 1011.6 - 0.0 - - - - - - -
21/07:30am 26.9 S 5 6 1011.3 - 0.0 - - - - - - -
21/07:00am 26.8 SSW 5 7 1010.8 - 0.0 - - - - - - -
21/06:30am 27.3 SSW 7 8 1010.5 - 0.0 - - - - - - -
21/06:00am 26.4 S 5 6 1010.2 - 0.0 - - - - - - -
21/05:30am 26.4 SSW 4 5 1009.8 - 0.0 - - - - - - -
21/05:00am 26.3 S 4 4 1009.5 - 0.0 - - - - - - -
21/04:30am 26.7 S 5 6 1009.2 - 0.0 - - - - - - -
21/04:00am 27.2 SW 5 7 1009.2 - 0.0 - - - - - - -
21/03:30am 27.3 SW 6 7 1009.3 - 0.0 - - - - - - -
21/03:00am 26.8 S 3 4 1009.5 - 0.0 - - - - - - -
21/02:30am 26.9 S 3 4 1009.8 - 0.0 - - - - - - -
21/02:00am 27.1 S 3 4 1009.9 - 0.0 - - - - - - -
21/01:30am 27.4 S 5 6 1010.1 - 0.0 - - - - - - -
21/01:00am 27.8 SSW 5 6 1010.4 - 0.0 - - - - - - -
21/12:30am 27.9 WSW 6 7 1010.5 - 0.0 - - - - - - -
21/12:00am 27.9 SW 6 8 1011.1 - 0.0 - - - - - - -
 
Date/Time
CST
Temp
°C
Wind Pressure Rain since
9am
mm
Weather Cloud Vis
km
Sea
Height
m
Swell
Dir  Spd
kts
Gust
kts
hPa Trend Height
m
Period
s
Dir
20/11:30pm 28.1 WSW 7 8 1011.0 - 0.0 - - - - - - -
20/11:00pm 28.0 SW 7 8 1011.2 - 0.0 - - - - - - -
20/10:30pm 28.0 SW 7 9 1010.8 - 0.0 - - - - - - -
20/10:00pm 28.3 SW 9 12 1010.5 - 0.0 - - - - - - -
20/09:30pm 28.7 W 9 11 1010.2 - 0.0 - - - - - - -
20/09:00pm 28.9 W 10 12 1009.9 - 0.0 - - - - - - -
20/08:30pm 29.0 W 12 14 1009.9 - 0.0 - - - - - - -
20/08:00pm 29.1 W 11 12 1009.3 - 0.0 - - - - - - -
20/07:30pm 29.2 W 11 12 1008.8 - 0.0 - - - - - - -
20/07:00pm 29.5 WNW 11 13 1008.5 - 0.0 - - - - - - -
20/06:30pm 29.6 W 10 13 1008.2 - 0.0 - - - - - - -
20/06:00pm 29.8 W 10 12 1007.9 - 0.0 - - - - - - -
20/05:30pm 30.6 W 13 14 1007.3 - 0.0 - - - - - - -
20/05:00pm 31.0 W 12 14 1007.2 - 0.0 - - - - - - -
20/04:30pm 30.9 W 13 15 1007.2 - 0.0 - - - - - - -
20/04:00pm 31.1 W 13 15 1007.4 - 0.0 - - - - - - -
20/03:30pm 31.3 W 13 16 1007.2 - 0.0 - - - - - - -
20/03:00pm 31.5 W 11 13 1007.7 - 0.0 - - - - - - -
20/02:30pm 31.0 W 10 12 1007.9 - 0.0 - - - - - - -
20/02:00pm 31.0 WSW 10 12 1008.2 - 0.0 - - - - - - -
20/01:30pm 30.8 WSW 8 10 1008.6 - 0.0 - - - - - - -
20/01:00pm 30.7 WSW 8 9 1009.1 - 0.0 - - - - - - -
20/12:30pm 30.4 WSW 8 10 1009.3 - 0.0 - - - - - - -
20/12:00pm 30.4 WSW 7 8 1009.6 - 0.0 - - - - - - -
20/11:30am 30.2 WSW 7 9 1009.9 - 0.0 - - - - - - -

Other Formats:

Comma delimited format used in spreadsheet applications
http://www.bom.gov.au/fwo/IDD60701/IDD60701.94102.axf

JavaScript Object Notation format (JSON) in row-major order
http://www.bom.gov.au/fwo/IDD60701/IDD60701.94102.json